TimeAKST,TemperatureF,Dew PointF,Humidity,Sea Level PressureIn,VisibilityMPH,Wind Direction,Wind SpeedMPH,Gust SpeedMPH,PrecipitationIn,Events,Conditions,WindDirDegrees,DateUTC
12:53 AM,-16.1,-20.9,79,29.59,10.0,Calm,Calm,-,N/A,,Partly Cloudy,0,2012-12-28 09:53:00
1:53 AM,-16.1,-22.0,74,29.60,10.0,Calm,Calm,-,N/A,,Scattered Clouds,0,2012-12-28 10:53:00
3:53 AM,-17.0,-22.0,78,29.62,10.0,Calm,Calm,-,N/A,,Mostly Cloudy,0,2012-12-28 12:53:00
4:53 AM,-16.1,-22.0,74,29.62,10.0,Calm,Calm,-,N/A,,Mostly Cloudy,0,2012-12-28 13:53:00
5:53 AM,-11.0,-16.1,78,29.62,10.0,Calm,Calm,-,N/A,,Mostly Cloudy,0,2012-12-28 14:53:00
6:53 AM,-8.0,-13.0,79,29.62,10.0,Calm,Calm,-,N/A,,Mostly Cloudy,0,2012-12-28 15:53:00
7:53 AM,-5.1,-9.9,80,29.64,10.0,Calm,Calm,-,N/A,,Mostly Cloudy,0,2012-12-28 16:53:00
8:53 AM,-4.0,-9.0,79,29.64,10.0,Calm,Calm,-,N/A,,Mostly Cloudy,0,2012-12-28 17:53:00
9:53 AM,-4.0,-9.0,79,29.65,10.0,Calm,Calm,-,N/A,,Mostly Cloudy,0,2012-12-28 18:53:00
10:53 AM,-7.1,-11.0,83,29.65,10.0,Calm,Calm,-,N/A,,Mostly Cloudy,0,2012-12-28 19:53:00
11:53 AM,-4.0,-9.0,79,29.66,10.0,Calm,Calm,-,N/A,,Mostly Cloudy,0,2012-12-28 20:53:00
12:53 PM,-6.0,-11.0,79,29.67,10.0,Calm,Calm,-,N/A,,Scattered Clouds,0,2012-12-28 21:53:00
1:53 PM,-9.0,-14.1,79,29.67,10.0,Calm,Calm,-,N/A,,Partly Cloudy,0,2012-12-28 22:53:00
2:53 PM,-9.0,-14.1,79,29.67,10.0,Calm,Calm,-,N/A,,Partly Cloudy,0,2012-12-28 23:53:00
3:53 PM,-11.9,-16.1,82,29.66,10.0,Calm,Calm,-,N/A,,Partly Cloudy,0,2012-12-29 00:53:00
4:53 PM,-13.0,-17.0,82,29.65,10.0,Calm,Calm,-,N/A,,Partly Cloudy,0,2012-12-29 01:53:00
5:53 PM,-11.9,-18.0,74,29.65,10.0,Calm,Calm,-,N/A,,Partly Cloudy,0,2012-12-29 02:53:00
6:53 PM,-13.0,-18.0,78,29.65,10.0,Calm,Calm,-,N/A,,Partly Cloudy,0,2012-12-29 03:53:00
7:53 PM,-14.1,-18.0,82,29.65,10.0,Calm,Calm,-,N/A,,Partly Cloudy,0,2012-12-29 04:53:00
8:53 PM,-11.9,-18.0,74,29.64,10.0,Calm,Calm,-,N/A,,Partly Cloudy,0,2012-12-29 05:53:00
9:53 PM,-11.0,-17.0,75,29.64,10.0,Calm,Calm,-,N/A,,Partly Cloudy,0,2012-12-29 06:53:00
10:53 PM,-11.0,-17.0,75,29.64,10.0,Calm,Calm,-,N/A,,Scattered Clouds,0,2012-12-29 07:53:00
11:53 PM,-9.9,-16.1,74,29.62,10.0,NNE,3.5,-,N/A,,Mostly Cloudy,30,2012-12-29 08:53:00